Back to catalog

STARLINK-35456

AliveCommunicationsVLEO
NORAD 65867·PAYLOAD·🇺🇸 United States

Launched Oct 3, 2025 from Vandenberg Space Force Base

Loading…

Next Passes (next 24 hours)

TLE

FreshSource: CelesTrak SupGP

Epoch: Sep 14, 2026, 14:37 UTC

1 65867C 25223P   26257.60951389  .00052815  00000+0  15602-2 0  2572
2 65867  53.1573 134.9158 0001262  74.7318 323.3766 15.34368709    17

Track STARLINK-35456 in real time with AllMySat

Download on the App Store